StationID,Date,MaxTemp,MinTemp,Precipitation,Snowfall,SnowDepth
"USW00026452","1953-10-22",44.96,35.06,15.00,0.00,0.00
"USW00026452","1953-10-23",35.96,30.02,0.00,0.00,0.00
"USW00026452","1953-10-24",33.08,30.02,0.00,0.00,0.00
"USW00026452","1953-10-25",33.98,26.06,0.00,0.00,0.00
"USW00026452","1953-10-26",30.92,19.04,0.00,0.00,0.00
"USW00026452","1953-10-27",21.92,12.02,0.00,0.00,0.00
"USW00026452","1953-10-28",17.96,8.06,0.00,0.00,0.00
"USW00026452","1953-10-29",17.96,10.94,0.00,0.00,0.00
"USW00026452","1953-10-30",21.02,15.08,3.00,3.00,0.00
"USW00026452","1953-10-31",28.04,10.94,0.00,0.00,0.00
"USW00026452","1953-11-01",24.98,12.02,0.00,0.00,0.00
"USW00026452","1953-11-02",28.04,19.04,0.00,0.00,0.00
"USW00026452","1953-11-03",28.04,12.02,0.00,0.00,0.00
"USW00026452","1953-11-04",21.92,5.00,0.00,0.00,0.00
"USW00026452","1953-11-05",24.08,1.04,0.00,0.00,0.00
"USW00026452","1953-11-06",19.94,1.04,0.00,0.00,0.00
"USW00026452","1953-11-07",15.98,6.08,0.00,0.00,0.00
"USW00026452","1953-11-08",15.98,5.00,0.00,0.00,0.00
"USW00026452","1953-11-09",21.02,6.08,0.00,0.00,0.00
"USW00026452","1953-11-10",30.02,21.02,0.00,0.00,0.00
"USW00026452","1953-11-11",32.00,26.06,0.00,0.00,0.00
"USW00026452","1953-11-12",32.00,28.04,0.00,0.00,0.00
"USW00026452","1953-11-13",32.00,26.96,0.00,0.00,0.00
"USW00026452","1953-11-14",33.08,30.02,0.00,0.00,0.00
"USW00026452","1953-11-15",30.02,24.98,0.00,0.00,0.00
"USW00026452","1953-11-16",30.92,24.08,20.00,20.00,0.00
"USW00026452","1953-11-17",30.92,26.06,0.00,0.00,25.00
"USW00026452","1953-11-18",33.08,24.08,0.00,0.00,25.00
"USW00026452","1953-11-19",24.98,15.08,0.00,0.00,0.00
"USW00026452","1953-11-20",19.94,12.92,0.00,0.00,0.00
"USW00026452","1953-11-21",19.94,8.06,0.00,0.00,0.00
"USW00026452","1953-11-22",24.08,19.94,18.00,18.00,25.00
"USW00026452","1953-11-23",26.06,10.04,0.00,0.00,25.00
"USW00026452","1953-11-24",33.98,19.04,91.00,91.00,25.00
"USW00026452","1953-11-25",33.98,19.94,0.00,0.00,102.00
"USW00026452","1953-11-26",30.92,19.94,0.00,0.00,102.00
"USW00026452","1953-11-27",30.02,17.06,0.00,0.00,102.00
"USW00026452","1953-11-28",28.04,21.02,0.00,0.00,102.00
"USW00026452","1953-11-29",28.04,12.92,0.00,0.00,102.00
"USW00026452","1953-11-30",21.92,15.08,0.00,0.00,102.00
"USW00026452","1953-12-01",21.92,15.08,0.00,0.00,102.00
"USW00026452","1953-12-02",19.04,12.02,0.00,0.00,102.00
"USW00026452","1953-12-03",15.08,1.94,0.00,0.00,102.00
"USW00026452","1953-12-04",15.08,5.00,0.00,0.00,102.00
"USW00026452","1953-12-05",12.92,3.92,0.00,0.00,102.00
"USW00026452","1953-12-06",6.98,-5.98,0.00,0.00,102.00
"USW00026452","1953-12-07",15.98,3.02,0.00,0.00,102.00
"USW00026452","1953-12-08",24.08,15.08,0.00,0.00,102.00
"USW00026452","1953-12-09",24.08,21.92,64.00,66.00,102.00
"USW00026452","1953-12-10",21.92,12.92,8.00,8.00,178.00
"USW00026452","1953-12-11",24.08,17.06,43.00,43.00,178.00
"USW00026452","1953-12-12",21.02,14.00,41.00,41.00,254.00
"USW00026452","1953-12-13",15.08,3.02,0.00,0.00,254.00
"USW00026452","1953-12-14",17.96,-0.94,0.00,0.00,254.00
"USW00026452","1953-12-15",30.02,15.98,0.00,0.00,254.00
"USW00026452","1953-12-16",35.96,28.04,0.00,0.00,229.00
"USW00026452","1953-12-17",35.96,28.94,28.00,10.00,229.00
"USW00026452","1953-12-18",33.08,21.92,0.00,0.00,203.00
"USW00026452","1953-12-19",30.02,19.94,0.00,0.00,203.00
"USW00026452","1953-12-20",21.02,12.02,0.00,0.00,178.00
"USW00026452","1953-12-21",28.94,17.96,51.00,51.00,178.00
"USW00026452","1953-12-22",37.94,24.98,0.00,0.00,229.00
"USW00026452","1953-12-23",30.92,19.04,0.00,0.00,203.00
"USW00026452","1953-12-24",30.92,19.94,13.00,13.00,203.00
"USW00026452","1953-12-25",28.04,26.06,0.00,0.00,229.00
"USW00026452","1953-12-26",28.04,24.08,74.00,74.00,254.00
"USW00026452","1953-12-27",28.04,19.94,91.00,91.00,305.00
"USW00026452","1953-12-28",21.02,15.98,41.00,41.00,381.00
"USW00026452","1953-12-29",21.92,17.96,38.00,48.00,406.00
"USW00026452","1953-12-30",21.02,14.00,0.00,0.00,406.00
"USW00026452","1953-12-31",21.02,12.92,46.00,38.00,330.00
"USW00026452","1954-01-01",15.98,5.00,0.00,0.00,356.00
"USW00026452","1954-01-02",14.00,-0.04,0.00,0.00,356.00
"USW00026452","1954-01-03",12.92,-2.02,0.00,0.00,330.00
"USW00026452","1954-01-04",10.94,6.08,0.00,0.00,279.00
"USW00026452","1954-01-05",10.04,3.02,0.00,0.00,254.00
"USW00026452","1954-01-06",17.06,1.04,0.00,0.00,254.00
"USW00026452","1954-01-07",28.04,10.04,0.00,0.00,254.00
"USW00026452","1954-01-08",30.92,24.08,94.00,8.00,229.00
"USW00026452","1954-01-09",35.96,26.06,13.00,10.00,279.00
"USW00026452","1954-01-10",30.02,21.02,5.00,5.00,279.00
"USW00026452","1954-01-11",30.02,23.00,8.00,5.00,279.00
"USW00026452","1954-01-12",28.94,19.04,0.00,0.00,279.00
"USW00026452","1954-01-13",19.04,5.00,0.00,0.00,279.00
"USW00026452","1954-01-14",17.06,3.02,0.00,0.00,279.00
"USW00026452","1954-01-15",19.94,-0.04,0.00,0.00,254.00
"USW00026452","1954-01-16",15.08,-0.04,0.00,0.00,254.00
"USW00026452","1954-01-17",14.00,3.02,0.00,0.00,254.00
"USW00026452","1954-01-18",23.00,-0.04,0.00,0.00,254.00
"USW00026452","1954-01-19",26.06,17.96,0.00,0.00,254.00
"USW00026452","1954-01-20",24.08,6.08,0.00,0.00,254.00
"USW00026452","1954-01-21",12.92,5.00,0.00,0.00,254.00
"USW00026452","1954-01-22",10.04,-0.94,0.00,0.00,229.00
"USW00026452","1954-01-23",21.02,1.94,0.00,0.00,229.00
"USW00026452","1954-01-24",17.06,6.98,0.00,0.00,203.00
"USW00026452","1954-01-25",19.04,6.98,0.00,0.00,203.00
"USW00026452","1954-01-26",12.92,-5.08,0.00,0.00,203.00
"USW00026452","1954-01-27",8.06,-5.08,0.00,0.00,203.00
"USW00026452","1954-01-28",1.94,-11.02,0.00,0.00,203.00
"USW00026452","1954-01-29",5.00,-7.06,0.00,0.00,203.00
"USW00026452","1954-01-30",15.98,3.92,28.00,28.00,203.00
"USW00026452","1954-01-31",28.94,14.00,36.00,36.00,254.00
"USW00026452","1954-02-01",26.06,15.08,0.00,0.00,254.00
"USW00026452","1954-02-02",35.96,17.06,3.00,3.00,254.00
"USW00026452","1954-02-03",39.02,15.98,0.00,0.00,254.00
"USW00026452","1954-02-04",26.96,19.04,0.00,0.00,254.00
"USW00026452","1954-02-05",39.92,24.08,0.00,0.00,254.00
"USW00026452","1954-02-06",35.96,28.04,0.00,0.00,229.00
"USW00026452","1954-02-07",30.02,21.92,5.00,5.00,229.00
"USW00026452","1954-02-08",30.02,14.00,5.00,8.00,229.00
"USW00026452","1954-02-09",15.08,3.92,0.00,0.00,229.00
"USW00026452","1954-02-10",14.00,-0.94,0.00,0.00,229.00
"USW00026452","1954-02-11",15.08,-0.04,0.00,0.00,229.00
"USW00026452","1954-02-12",21.92,-0.94,0.00,0.00,229.00
"USW00026452","1954-02-13",17.06,-5.08,0.00,0.00,229.00
"USW00026452","1954-02-14",8.96,-11.02,0.00,0.00,229.00
"USW00026452","1954-02-15",10.04,-7.96,0.00,0.00,229.00
"USW00026452","1954-02-16",6.98,-7.06,0.00,0.00,229.00
"USW00026452","1954-02-17",10.04,-9.04,0.00,0.00,229.00
"USW00026452","1954-02-18",8.96,-11.02,0.00,0.00,229.00
"USW00026452","1954-02-19",10.94,-2.02,5.00,5.00,229.00
"USW00026452","1954-02-20",8.06,-5.98,0.00,0.00,229.00
"USW00026452","1954-02-21",6.98,-5.08,20.00,20.00,229.00
"USW00026452","1954-02-22",14.00,1.04,36.00,33.00,254.00
"USW00026452","1954-02-23",10.04,-9.94,0.00,0.00,279.00
"USW00026452","1954-02-24",19.94,8.96,18.00,20.00,279.00
"USW00026452","1954-02-25",12.92,-7.96,0.00,0.00,305.00
"USW00026452","1954-02-26",1.04,-20.02,0.00,0.00,305.00
"USW00026452","1954-02-27",6.98,-16.06,0.00,0.00,305.00
"USW00026452","1954-02-28",14.00,-2.02,0.00,0.00,305.00
"USW00026452","1954-03-01",35.06,12.92,25.00,25.00,305.00
"USW00026452","1954-03-02",30.92,26.06,13.00,13.00,330.00
"USW00026452","1954-03-03",33.08,19.94,0.00,0.00,330.00
"USW00026452","1954-03-04",24.98,17.06,3.00,3.00,330.00
"USW00026452","1954-03-05",26.06,17.96,0.00,0.00,330.00
"USW00026452","1954-03-06",28.04,19.04,3.00,3.00,330.00
"USW00026452","1954-03-07",30.92,21.92,86.00,97.00,406.00
"USW00026452","1954-03-08",26.06,14.00,0.00,0.00,406.00
"USW00026452","1954-03-09",24.98,3.02,0.00,0.00,381.00
"USW00026452","1954-03-10",24.98,5.00,0.00,0.00,381.00
"USW00026452","1954-03-11",37.04,21.02,5.00,8.00,381.00
"USW00026452","1954-03-12",33.08,24.98,0.00,0.00,356.00
"USW00026452","1954-03-13",28.94,23.00,3.00,3.00,356.00
"USW00026452","1954-03-14",30.02,17.96,0.00,0.00,356.00
"USW00026452","1954-03-15",26.06,12.92,15.00,15.00,356.00
"USW00026452","1954-03-16",28.04,17.06,74.00,79.00,432.00
"USW00026452","1954-03-17",26.96,-0.04,0.00,0.00,432.00
"USW00026452","1954-03-18",19.04,-0.04,0.00,0.00,406.00
"USW00026452","1954-03-19",21.92,12.92,8.00,8.00,381.00
"USW00026452","1954-03-20",30.92,21.92,18.00,18.00,381.00
"USW00026452","1954-03-21",35.96,26.96,38.00,30.00,406.00
"USW00026452","1954-03-22",33.98,21.02,0.00,0.00,381.00
"USW00026452","1954-03-23",28.94,15.08,15.00,20.00,381.00
"USW00026452","1954-03-24",35.06,23.00,3.00,5.00,406.00
"USW00026452","1954-03-25",41.00,17.06,0.00,0.00,381.00
"USW00026452","1954-03-26",41.00,19.94,0.00,0.00,356.00
"USW00026452","1954-03-27",44.06,19.94,0.00,0.00,330.00
"USW00026452","1954-03-28",44.96,21.02,0.00,0.00,305.00
"USW00026452","1954-03-29",39.92,21.92,0.00,0.00,279.00
"USW00026452","1954-03-30",46.04,21.02,0.00,0.00,229.00
"USW00026452","1954-03-31",46.04,30.02,0.00,0.00,203.00
"USW00026452","1954-04-01",44.96,26.06,0.00,0.00,178.00
"USW00026452","1954-04-02",44.06,26.96,0.00,0.00,152.00
"USW00026452","1954-04-03",41.00,23.00,0.00,0.00,102.00
"USW00026452","1954-04-04",42.98,26.96,0.00,0.00,76.00
"USW00026452","1954-04-05",41.00,26.06,0.00,0.00,51.00
"USW00026452","1954-04-06",32.00,21.92,0.00,0.00,25.00
"USW00026452","1954-04-07",32.00,12.02,8.00,8.00,25.00
"USW00026452","1954-04-08",30.02,15.08,0.00,0.00,25.00
"USW00026452","1954-04-09",35.96,15.98,0.00,0.00,25.00
"USW00026452","1954-04-10",35.96,17.06,0.00,0.00,0.00
"USW00026452","1954-04-11",39.02,21.92,0.00,0.00,0.00
"USW00026452","1954-04-12",42.08,30.02,0.00,0.00,0.00
"USW00026452","1954-04-13",46.94,30.02,0.00,0.00,0.00
"USW00026452","1954-04-14",44.96,30.02,0.00,0.00,0.00
"USW00026452","1954-04-15",46.04,28.94,0.00,0.00,0.00
"USW00026452","1954-04-16",44.96,28.04,0.00,0.00,0.00
"USW00026452","1954-04-17",39.92,30.92,0.00,0.00,0.00
"USW00026452","1954-04-18",42.98,28.04,0.00,0.00,0.00
"USW00026452","1954-04-19",44.96,28.04,0.00,0.00,0.00
"USW00026452","1954-04-20",46.94,28.94,0.00,0.00,0.00
"USW00026452","1954-04-21",42.98,26.96,0.00,0.00,0.00
"USW00026452","1954-04-22",50.00,28.04,0.00,0.00,0.00
"USW00026452","1954-04-23",46.94,28.94,0.00,0.00,0.00
"USW00026452","1954-04-24",48.92,30.02,0.00,0.00,0.00
"USW00026452","1954-04-25",46.04,30.92,0.00,0.00,0.00
"USW00026452","1954-04-26",44.06,30.92,0.00,0.00,0.00
"USW00026452","1954-04-27",48.92,30.02,0.00,0.00,0.00
"USW00026452","1954-04-28",48.02,37.04,0.00,0.00,0.00
"USW00026452","1954-04-29",46.04,37.94,0.00,0.00,0.00
"USW00026452","1954-04-30",48.02,35.96,0.00,0.00,0.00
"USW00026452","1954-05-01",48.92,35.06,0.00,0.00,0.00
"USW00026452","1954-05-02",48.92,32.00,0.00,0.00,0.00
"USW00026452","1954-05-03",51.08,35.96,0.00,0.00,0.00
"USW00026452","1954-05-04",53.96,37.04,0.00,0.00,0.00
"USW00026452","1954-05-05",53.96,35.06,0.00,0.00,0.00
"USW00026452","1954-05-06",51.98,37.94,0.00,0.00,0.00
"USW00026452","1954-05-07",50.00,37.94,0.00,0.00,0.00
"USW00026452","1954-05-08",53.96,39.92,0.00,0.00,0.00
"USW00026452","1954-05-09",53.96,39.02,0.00,0.00,0.00
"USW00026452","1954-05-10",64.94,37.94,0.00,0.00,0.00
"USW00026452","1954-05-11",64.04,44.06,0.00,0.00,0.00
"USW00026452","1954-05-12",62.06,39.92,0.00,0.00,0.00
"USW00026452","1954-05-13",46.94,41.00,10.00,0.00,0.00
"USW00026452","1954-05-14",51.98,39.92,178.00,0.00,0.00
"USW00026452","1954-05-15",53.06,39.92,0.00,0.00,0.00
"USW00026452","1954-05-16",66.02,37.04,0.00,0.00,0.00
"USW00026452","1954-05-17",55.94,41.00,0.00,0.00,0.00
"USW00026452","1954-05-18",57.02,37.94,0.00,0.00,0.00
"USW00026452","1954-05-19",68.00,42.08,0.00,0.00,0.00
"USW00026452","1954-05-20",50.00,42.08,3.00,0.00,0.00
"USW00026452","1954-05-21",53.96,42.98,0.00,0.00,0.00
"USW00026452","1954-05-22",60.08,42.98,0.00,0.00,0.00
"USW00026452","1954-05-23",64.94,44.96,0.00,0.00,0.00
"USW00026452","1954-05-24",57.02,46.94,0.00,0.00,0.00
"USW00026452","1954-05-25",53.06,42.98,0.00,0.00,0.00
"USW00026452","1954-05-26",60.08,42.08,0.00,0.00,0.00
"USW00026452","1954-05-27",55.04,44.96,23.00,0.00,0.00
"USW00026452","1954-05-28",57.02,39.02,0.00,0.00,0.00
"USW00026452","1954-05-29",53.96,37.94,0.00,0.00,0.00
"USW00026452","1954-05-30",62.06,42.98,0.00,0.00,0.00
"USW00026452","1954-05-31",62.06,41.00,0.00,0.00,0.00
"USW00026452","1954-06-01",62.96,44.96,0.00,0.00,0.00
"USW00026452","1954-06-02",62.06,46.94,0.00,0.00,0.00
"USW00026452","1954-06-03",57.92,42.98,0.00,0.00,0.00
"USW00026452","1954-06-04",57.92,46.04,0.00,0.00,0.00
"USW00026452","1954-06-05",62.96,42.98,0.00,0.00,0.00
"USW00026452","1954-06-06",64.94,48.02,0.00,0.00,0.00
"USW00026452","1954-06-07",62.06,48.02,0.00,0.00,0.00
"USW00026452","1954-06-08",66.02,42.98,0.00,0.00,0.00
"USW00026452","1954-06-09",62.96,50.00,0.00,0.00,0.00
"USW00026452","1954-06-10",64.94,46.04,0.00,0.00,0.00
"USW00026452","1954-06-11",57.92,44.06,0.00,0.00,0.00
"USW00026452","1954-06-12",57.92,44.06,0.00,0.00,0.00
"USW00026452","1954-06-13",62.06,42.98,0.00,0.00,0.00
"USW00026452","1954-06-14",62.06,44.06,28.00,0.00,0.00
"USW00026452","1954-06-15",60.08,46.04,64.00,0.00,0.00
"USW00026452","1954-06-16",60.08,46.04,0.00,0.00,0.00
"USW00026452","1954-06-17",69.98,46.04,0.00,0.00,0.00
"USW00026452","1954-06-18",75.92,46.04,0.00,0.00,0.00
"USW00026452","1954-06-19",59.00,46.94,0.00,0.00,0.00
"USW00026452","1954-06-20",62.96,48.92,0.00,0.00,0.00
"USW00026452","1954-06-21",60.98,48.02,48.00,0.00,0.00
"USW00026452","1954-06-22",55.94,42.98,104.00,0.00,0.00
"USW00026452","1954-06-23",64.04,42.98,0.00,0.00,0.00
"USW00026452","1954-06-24",64.04,46.04,0.00,0.00,0.00
"USW00026452","1954-06-25",66.92,48.02,0.00,0.00,0.00
"USW00026452","1954-06-26",64.94,46.94,0.00,0.00,0.00
"USW00026452","1954-06-27",57.92,48.92,38.00,0.00,0.00
"USW00026452","1954-06-28",60.98,46.94,0.00,0.00,0.00
"USW00026452","1954-06-29",62.06,48.02,0.00,0.00,0.00
"USW00026452","1954-06-30",64.04,46.94,0.00,0.00,0.00
"USW00026452","1954-07-01",60.08,46.94,94.00,0.00,0.00
"USW00026452","1954-07-02",64.04,46.04,0.00,0.00,0.00
"USW00026452","1954-07-03",64.94,41.00,0.00,0.00,0.00
"USW00026452","1954-07-04",71.06,48.02,0.00,0.00,0.00
"USW00026452","1954-07-05",55.94,48.92,20.00,0.00,0.00
"USW00026452","1954-07-06",57.92,48.92,13.00,0.00,0.00
"USW00026452","1954-07-07",73.04,48.92,0.00,0.00,0.00
"USW00026452","1954-07-08",66.02,50.00,0.00,0.00,0.00
"USW00026452","1954-07-09",66.92,48.02,0.00,0.00,0.00
"USW00026452","1954-07-10",69.98,50.00,0.00,0.00,0.00
"USW00026452","1954-07-11",69.08,53.96,0.00,0.00,0.00
"USW00026452","1954-07-12",69.98,50.00,0.00,0.00,0.00
"USW00026452","1954-07-13",69.08,46.94,0.00,0.00,0.00
"USW00026452","1954-07-14",68.00,51.98,0.00,0.00,0.00
"USW00026452","1954-07-15",57.92,51.98,0.00,0.00,0.00
"USW00026452","1954-07-16",60.08,53.06,5.00,0.00,0.00
"USW00026452","1954-07-17",64.04,53.06,3.00,0.00,0.00
"USW00026452","1954-07-18",68.00,51.98,0.00,0.00,0.00
"USW00026452","1954-07-19",73.94,57.02,0.00,0.00,0.00
"USW00026452","1954-07-20",60.08,55.04,0.00,0.00,0.00
"USW00026452","1954-07-21",59.00,51.98,23.00,0.00,0.00
"USW00026452","1954-07-22",62.06,51.98,23.00,0.00,0.00
"USW00026452","1954-07-23",55.04,50.00,124.00,0.00,0.00
"USW00026452","1954-07-24",60.98,48.92,0.00,0.00,0.00
"USW00026452","1954-07-25",64.94,44.96,0.00,0.00,0.00
"USW00026452","1954-07-26",68.00,48.02,0.00,0.00,0.00
"USW00026452","1954-07-27",75.02,48.02,0.00,0.00,0.00
"USW00026452","1954-07-28",68.00,53.96,10.00,0.00,0.00
"USW00026452","1954-07-29",69.98,50.00,10.00,0.00,0.00
"USW00026452","1954-07-30",57.92,53.06,102.00,0.00,0.00
"USW00026452","1954-07-31",55.94,51.08,124.00,0.00,0.00
"USW00026452","1954-08-01",55.04,51.98,114.00,0.00,0.00
"USW00026452","1954-08-02",57.92,51.08,41.00,0.00,0.00
"USW00026452","1954-08-03",69.08,53.06,3.00,0.00,0.00
"USW00026452","1954-08-04",62.06,53.06,5.00,0.00,0.00
"USW00026452","1954-08-05",66.92,53.06,0.00,0.00,0.00
"USW00026452","1954-08-06",66.92,55.04,0.00,0.00,0.00
"USW00026452","1954-08-07",68.00,51.08,0.00,0.00,0.00
"USW00026452","1954-08-08",68.00,53.06,0.00,0.00,0.00
"USW00026452","1954-08-09",69.98,51.98,0.00,0.00,0.00
"USW00026452","1954-08-10",66.92,53.06,0.00,0.00,0.00
"USW00026452","1954-08-11",60.08,50.00,46.00,0.00,0.00
"USW00026452","1954-08-12",53.06,48.02,97.00,0.00,0.00
"USW00026452","1954-08-13",57.02,46.94,18.00,0.00,0.00
"USW00026452","1954-08-14",60.08,48.02,0.00,0.00,0.00
"USW00026452","1954-08-15",64.04,48.02,56.00,0.00,0.00
"USW00026452","1954-08-16",62.06,50.00,0.00,0.00,0.00
"USW00026452","1954-08-17",64.04,42.98,15.00,0.00,0.00
"USW00026452","1954-08-18",60.08,51.08,20.00,0.00,0.00
"USW00026452","1954-08-19",60.08,51.98,61.00,0.00,0.00
"USW00026452","1954-08-20",62.96,50.00,0.00,0.00,0.00
"USW00026452","1954-08-21",62.96,41.00,0.00,0.00,0.00
"USW00026452","1954-08-22",62.06,42.98,15.00,0.00,0.00
"USW00026452","1954-08-23",62.96,51.08,41.00,0.00,0.00
"USW00026452","1954-08-24",68.00,53.96,0.00,0.00,0.00
"USW00026452","1954-08-25",64.94,46.94,0.00,0.00,0.00
"USW00026452","1954-08-26",64.94,46.94,0.00,0.00,0.00
"USW00026452","1954-08-27",62.96,46.94,3.00,0.00,0.00
"USW00026452","1954-08-28",62.06,48.02,13.00,0.00,0.00
"USW00026452","1954-08-29",62.96,42.98,0.00,0.00,0.00
"USW00026452","1954-08-30",60.98,44.96,0.00,0.00,0.00
"USW00026452","1954-08-31",60.08,48.92,0.00,0.00,0.00
"USW00026452","1954-09-01",60.98,44.06,0.00,0.00,0.00
"USW00026452","1954-09-02",62.96,50.00,38.00,0.00,0.00
"USW00026452","1954-09-03",57.92,48.92,15.00,0.00,0.00
"USW00026452","1954-09-04",53.96,48.02,43.00,0.00,0.00
"USW00026452","1954-09-05",53.96,44.96,8.00,0.00,0.00
"USW00026452","1954-09-06",51.98,42.98,15.00,0.00,0.00
"USW00026452","1954-09-07",59.00,41.00,0.00,0.00,0.00
"USW00026452","1954-09-08",57.02,39.92,0.00,0.00,0.00
"USW00026452","1954-09-09",55.94,48.92,104.00,0.00,0.00
"USW00026452","1954-09-10",55.04,48.92,41.00,0.00,0.00
"USW00026452","1954-09-11",60.98,39.92,0.00,0.00,0.00
"USW00026452","1954-09-12",60.08,39.02,0.00,0.00,0.00
"USW00026452","1954-09-13",53.96,35.06,0.00,0.00,0.00
"USW00026452","1954-09-14",51.98,42.08,8.00,0.00,0.00
"USW00026452","1954-09-15",53.96,46.04,5.00,0.00,0.00
"USW00026452","1954-09-16",53.96,48.92,13.00,0.00,0.00
"USW00026452","1954-09-17",53.06,48.92,8.00,0.00,0.00
"USW00026452","1954-09-18",60.08,46.94,0.00,0.00,0.00
"USW00026452","1954-09-19",48.92,44.96,8.00,0.00,0.00
"USW00026452","1954-09-20",53.06,39.02,0.00,0.00,0.00
"USW00026452","1954-09-21",51.98,35.06,0.00,0.00,0.00
"USW00026452","1954-09-22",50.00,32.00,0.00,0.00,0.00
"USW00026452","1954-09-23",51.98,35.06,3.00,0.00,0.00
"USW00026452","1954-09-24",55.04,41.00,3.00,0.00,0.00
"USW00026452","1954-09-25",57.02,37.94,0.00,0.00,0.00
"USW00026452","1954-09-26",57.92,37.04,0.00,0.00,0.00
"USW00026452","1954-09-27",51.08,37.04,0.00,0.00,0.00
"USW00026452","1954-09-28",48.02,39.92,30.00,0.00,0.00
"USW00026452","1954-09-29",50.00,44.06,51.00,0.00,0.00
"USW00026452","1954-09-30",53.96,46.94,8.00,0.00,0.00
"USW00026452","1954-10-01",57.02,41.00,0.00,0.00,0.00
"USW00026452","1954-10-02",59.00,37.94,0.00,0.00,0.00
"USW00026452","1954-10-03",55.94,35.96,0.00,0.00,0.00
"USW00026452","1954-10-04",53.06,33.98,0.00,0.00,0.00
"USW00026452","1954-10-05",48.02,33.98,0.00,0.00,0.00
"USW00026452","1954-10-06",42.08,32.00,0.00,0.00,0.00
"USW00026452","1954-10-07",42.08,37.94,0.00,0.00,0.00
"USW00026452","1954-10-08",42.08,37.04,46.00,0.00,0.00
"USW00026452","1954-10-09",46.94,37.04,3.00,0.00,0.00
"USW00026452","1954-10-10",46.04,37.04,0.00,0.00,0.00
"USW00026452","1954-10-11",44.96,39.02,0.00,0.00,0.00
"USW00026452","1954-10-12",44.96,35.06,18.00,0.00,0.00
"USW00026452","1954-10-13",42.98,30.92,0.00,0.00,0.00
"USW00026452","1954-10-14",46.94,39.02,0.00,0.00,0.00
"USW00026452","1954-10-15",44.96,39.02,0.00,0.00,0.00
"USW00026452","1954-10-16",39.92,35.96,76.00,0.00,0.00
"USW00026452","1954-10-17",46.04,35.06,0.00,0.00,0.00
"USW00026452","1954-10-18",39.92,28.04,0.00,0.00,0.00
"USW00026452","1954-10-19",30.92,28.94,178.00,193.00,0.00
"USW00026452","1954-10-20",33.98,28.94,3.00,3.00,203.00
"USW00026452","1954-10-21",33.98,28.04,0.00,0.00,127.00
"USW00026452","1954-10-22",35.06,30.02,0.00,0.00,102.00
"USW00026452","1954-10-23",46.04,30.92,33.00,0.00,76.00
"USW00026452","1954-10-24",46.94,33.98,15.00,0.00,0.00
"USW00026452","1954-10-25",42.08,33.08,0.00,0.00,0.00
"USW00026452","1954-10-26",42.08,33.08,0.00,0.00,0.00
"USW00026452","1954-10-27",41.00,33.98,0.00,0.00,0.00
"USW00026452","1954-10-28",39.02,28.94,0.00,0.00,0.00
"USW00026452","1954-10-29",51.98,32.00,3.00,0.00,0.00
"USW00026452","1954-10-30",51.08,39.02,0.00,0.00,0.00
"USW00026452","1954-10-31",44.96,37.04,8.00,0.00,0.00
"USW00026452","1954-11-01",44.06,39.02,10.00,0.00,0.00
"USW00026452","1954-11-02",42.08,33.98,0.00,0.00,0.00
"USW00026452","1954-11-03",39.92,35.06,3.00,0.00,0.00
"USW00026452","1954-11-04",39.92,35.06,0.00,0.00,0.00
"USW00026452","1954-11-05",35.06,30.92,33.00,28.00,0.00
"USW00026452","1954-11-06",35.06,30.92,104.00,91.00,51.00
"USW00026452","1954-11-07",33.98,30.02,0.00,0.00,51.00
"USW00026452","1954-11-08",30.92,24.98,0.00,0.00,51.00
"USW00026452","1954-11-09",28.04,21.92,0.00,0.00,51.00
"USW00026452","1954-11-10",30.02,24.98,0.00,0.00,51.00
"USW00026452","1954-11-11",28.04,23.00,0.00,0.00,51.00
"USW00026452","1954-11-12",26.96,24.08,25.00,51.00,51.00
"USW00026452","1954-11-13",24.98,21.02,61.00,69.00,152.00
"USW00026452","1954-11-14",26.06,17.96,0.00,0.00,152.00
"USW00026452","1954-11-15",21.02,-0.04,0.00,0.00,152.00
"USW00026452","1954-11-16",33.98,17.96,51.00,0.00,127.00
"USW00026452","1954-11-17",35.06,17.96,0.00,0.00,102.00
"USW00026452","1954-11-18",23.00,12.02,0.00,0.00,102.00
"USW00026452","1954-11-19",23.00,10.04,0.00,0.00,76.00
"USW00026452","1954-11-20",28.94,19.94,0.00,0.00,76.00
"USW00026452","1954-11-22",37.94,26.06,8.00,0.00,76.00
"USW00026452","1954-11-23",35.96,24.08,0.00,0.00,51.00
"USW00026452","1954-11-24",35.96,24.08,0.00,0.00,51.00
"USW00026452","1954-11-25",37.04,24.98,0.00,0.00,51.00
"USW00026452","1954-11-26",33.08,24.98,0.00,0.00,51.00
"USW00026452","1954-11-27",33.08,24.98,0.00,0.00,51.00
"USW00026452","1954-11-28",44.06,19.04,23.00,0.00,51.00
"USW00026452","1954-11-29",21.02,10.94,0.00,0.00,51.00
"USW00026452","1954-11-30",17.06,10.04,13.00,18.00,51.00
"USW00026452","1954-12-01",23.00,17.06,25.00,28.00,76.00
"USW00026452","1954-12-02",19.94,8.06,8.00,15.00,102.00
"USW00026452","1954-12-03",15.98,8.96,0.00,0.00,127.00
"USW00026452","1954-12-04",8.96,-4.00,0.00,0.00,102.00
"USW00026452","1954-12-05",5.00,-2.02,0.00,0.00,102.00
"USW00026452","1954-12-06",14.00,1.94,8.00,8.00,102.00
"USW00026452","1954-12-07",15.98,8.96,0.00,0.00,102.00
"USW00026452","1954-12-08",15.08,8.06,0.00,0.00,102.00
"USW00026452","1954-12-09",21.02,10.94,0.00,0.00,102.00
"USW00026452","1954-12-10",19.94,12.92,0.00,0.00,76.00
"USW00026452","1954-12-11",17.96,10.04,0.00,0.00,76.00
"USW00026452","1954-12-12",19.94,15.08,46.00,102.00,76.00
"USW00026452","1954-12-13",17.96,5.00,0.00,0.00,178.00
"USW00026452","1954-12-14",14.00,1.94,0.00,0.00,178.00
"USW00026452","1954-12-15",12.02,6.08,0.00,0.00,152.00
"USW00026452","1954-12-16",15.98,6.98,10.00,8.00,152.00
"USW00026452","1954-12-17",21.92,12.92,25.00,33.00,152.00
"USW00026452","1954-12-18",21.02,8.96,8.00,5.00,178.00
"USW00026452","1954-12-19",23.00,19.94,15.00,20.00,203.00
"USW00026452","1954-12-20",24.98,12.02,160.00,147.00,203.00
"USW00026452","1954-12-21",12.92,8.96,86.00,109.00,305.00
"USW00026452","1954-12-22",8.96,-2.92,28.00,33.00,356.00
"USW00026452","1954-12-23",-2.92,-9.94,0.00,0.00,381.00